User: anonymous   Login
Location: Twentynine Palms Airport
(34.1316°N, 115.9458°W)
Time: 09:31:36
(UTC-08:00)
Language:

Oscar 19 - Orbit

View from above orbital plane
View from above orbital plane
View from above satellite
View from above satellite

Ground track
Ground track

The orbit data is extracted from the following two-line orbital elements,

1 20442U 90005G   17053.48215737  .00000007  00000-0  18410-4 0  9994
2 20442  98.5672 351.2178 0012693 123.4126 236.8274 14.32849169415197
Epoch (UTC): 22 February 2017 11:34:18
Eccentricity: 0.0012693
inclination: 98.5672°
perigee height: 773 km
apogee height: 791 km
right ascension of ascending node: 351.2178°
argument of perigee: 123.4126°
revolutions per day: 14.32849169
mean anomaly at epoch: 236.8274°
orbit number at epoch: 41519

The dashed part of the orbit path shows where the satellite is in the earth's shadow,  

DLR